| time (UTC) | temp C | wind direction | speed KPH | gust KPH | rain 1hr cm | rain 24hr cm | rain mn cm | humidity % | barometer mb |
| 20260906121024 | 22 | 308 | 0.0 | 3.2 | 0.00 | 0.66 | 0.00 | 96 | 1013.0 |
| 20260906120525 | 22 | 308 | 1.6 | 3.2 | 0.00 | 0.66 | 0.00 | 97 | 1012.9 |
| 20260906120111 | 22 | 307 | 0.0 | 0.0 | 0.00 | 0.66 | 0.00 | 97 | 1012.7 |
| 20260906115524 | 22 | 308 | 0.0 | 0.0 | 0.00 | 0.66 | 0.00 | 97 | 1012.7 |
| 20260906115021 | 22 | 308 | 0.0 | 0.0 | 0.00 | 0.66 | 0.00 | 97 | 1012.7 |
| 20260906114601 | 22 | 308 | 0.0 | 0.0 | 0.00 | 0.66 | 0.00 | 97 | 1012.8 |
| 20260906114020 | 21 | 308 | 0.0 | 0.0 | 0.00 | 0.66 | 0.00 | 97 | 1012.8 |
| 20260906113526 | 21 | 306 | 0.0 | 0.0 | 0.00 | 0.66 | 0.00 | 97 | 1012.7 |
| 20260906113101 | 21 | 306 | 0.0 | 0.0 | 0.00 | 0.66 | 0.00 | 97 | 1012.8 |
| 20260906112520 | 21 | 305 | 0.0 | 0.0 | 0.00 | 0.66 | 0.00 | 97 | 1012.7 |
| 20260906112025 | 21 | 305 | 0.0 | 0.0 | 0.00 | 0.66 | 0.00 | 97 | 1012.6 |
| 20260906111608 | 21 | 306 | 0.0 | 0.0 | 0.00 | 0.66 | 0.00 | 97 | 1012.6 |
| 20260906111024 | 21 | 306 | 0.0 | 0.0 | 0.00 | 0.66 | 0.00 | 97 | 1012.5 |
| 20260906110525 | 21 | 306 | 0.0 | 0.0 | 0.00 | 0.66 | 0.00 | 97 | 1012.4 |
| 20260906110103 | 21 | 306 | 0.0 | 0.0 | 0.00 | 0.66 | 0.00 | 96 | 1012.3 |
| 20260906105523 | 21 | 306 | 0.0 | 0.0 | 0.00 | 0.66 | 0.00 | 96 | 1012.3 |
| 20260906105024 | 21 | 306 | 0.0 | 0.0 | 0.00 | 0.66 | 0.00 | 96 | 1012.4 |
| 20260906104600 | 21 | 306 | 0.0 | 0.0 | 0.00 | 0.66 | 0.00 | 96 | 1012.3 |
| 20260906104021 | 21 | 306 | 0.0 | 0.0 | 0.00 | 0.66 | 0.00 | 96 | 1012.2 |
| 20260906103518 | 21 | 306 | 0.0 | 0.0 | 0.00 | 0.66 | 0.00 | 96 | 1012.1 |
| 20260906103055 | 21 | 305 | 0.0 | 1.6 | 0.00 | 0.66 | 0.00 | 96 | 1012.1 |
| 20260906102520 | 21 | 305 | 0.0 | 3.2 | 0.00 | 0.66 | 0.00 | 96 | 1011.9 |
| 20260906102029 | 21 | 305 | 0.0 | 3.2 | 0.00 | 0.66 | 0.00 | 96 | 1011.9 |
| 20260906101552 | 21 | 305 | 0.0 | 3.2 | 0.00 | 0.66 | 0.00 | 96 | 1011.8 |
| 20260906101026 | 21 | 305 | 0.0 | 3.2 | 0.00 | 0.66 | 0.00 | 96 | 1011.9 |
| 20260906100526 | 21 | 305 | 0.0 | 0.0 | 0.00 | 0.66 | 0.00 | 96 | 1011.8 |
| 20260906100051 | 22 | 305 | 0.0 | 0.0 | 0.00 | 0.66 | 0.00 | 96 | 1011.7 |
| 20260906095523 | 21 | 305 | 0.0 | 0.0 | 0.00 | 0.66 | 0.00 | 96 | 1011.8 |
| 20260906095023 | 22 | 305 | 0.0 | 0.0 | 0.00 | 0.66 | 0.00 | 96 | 1011.7 |
| 20260906094559 | 22 | 303 | 0.0 | 0.0 | 0.00 | 0.66 | 0.00 | 96 | 1011.6 |
| 20260906094021 | 22 | 303 | 0.0 | 0.0 | 0.00 | 0.66 | 0.00 | 96 | 1011.7 |
| 20260906093522 | 22 | 303 | 0.0 | 0.0 | 0.00 | 0.66 | 0.00 | 96 | 1011.6 |
| 20260906093106 | 22 | 303 | 0.0 | 0.0 | 0.00 | 0.66 | 0.00 | 96 | 1011.5 |
| 20260906092519 | 21 | 303 | 0.0 | 0.0 | 0.00 | 0.66 | 0.00 | 96 | 1011.5 |
| 20260906092025 | 22 | 303 | 0.0 | 0.0 | 0.00 | 0.66 | 0.00 | 96 | 1011.5 |
| 20260906091615 | 21 | 303 | 0.0 | 0.0 | 0.00 | 0.66 | 0.00 | 96 | 1011.4 |
| 20260906091023 | 22 | 303 | 0.0 | 0.0 | 0.00 | 0.66 | 0.00 | 96 | 1011.4 |
| 20260906090523 | 22 | 303 | 0.0 | 0.0 | 0.00 | 0.66 | 0.00 | 96 | 1011.5 |
| 20260906090100 | 21 | 303 | 0.0 | 1.6 | 0.00 | 0.66 | 0.00 | 96 | 1011.5 |
| 20260906085526 | 21 | 303 | 0.0 | 1.6 | 0.00 | 0.66 | 0.00 | 96 | 1011.5 |
| 20260906085023 | 21 | 303 | 0.0 | 0.0 | 0.00 | 0.66 | 0.00 | 96 | 1011.5 |
| 20260906084605 | 21 | 303 | 0.0 | 0.0 | 0.00 | 0.66 | 0.00 | 96 | 1011.7 |
| 20260906084018 | 21 | 303 | 0.0 | 0.0 | 0.00 | 0.66 | 0.00 | 96 | 1011.7 |
| 20260906083520 | 21 | 303 | 0.0 | 0.0 | 0.00 | 0.66 | 0.00 | 96 | 1011.7 |
| 20260906083057 | 21 | 303 | 0.0 | 0.0 | 0.00 | 0.66 | 0.00 | 96 | 1011.6 |
| 20260906082524 | 21 | 303 | 0.0 | 0.0 | 0.00 | 0.66 | 0.00 | 96 | 1011.5 |
| 20260906082024 | 21 | 303 | 0.0 | 1.6 | 0.00 | 0.66 | 0.00 | 96 | 1011.6 |
| 20260906081553 | 22 | 303 | 0.0 | 1.6 | 0.00 | 0.66 | 0.00 | 96 | 1011.5 |
| 20260906081024 | 22 | 303 | 0.0 | 1.6 | 0.00 | 0.66 | 0.00 | 96 | 1011.6 |
| 20260906080525 | 21 | 303 | 0.0 | 1.6 | 0.00 | 0.66 | 0.00 | 96 | 1011.3 |
| 20260906080110 | 21 | 303 | 0.0 | 1.6 | 0.00 | 0.66 | 0.00 | 96 | 1011.4 |
| 20260906075525 | 22 | 303 | 0.0 | 1.6 | 0.00 | 0.66 | 0.00 | 96 | 1011.4 |
| 20260906075028 | 22 | 303 | 0.0 | 0.0 | 0.00 | 0.66 | 0.00 | 96 | 1011.4 |
| 20260906074600 | 22 | 303 | 0.0 | 1.6 | 0.00 | 0.66 | 0.00 | 96 | 1011.5 |
| 20260906074024 | 22 | 303 | 0.0 | 3.2 | 0.00 | 0.66 | 0.00 | 96 | 1011.4 |
| 20260906073519 | 22 | 303 | 0.0 | 3.2 | 0.00 | 0.66 | 0.00 | 96 | 1011.3 |
| 20260906073054 | 22 | 303 | 0.0 | 3.2 | 0.00 | 0.66 | 0.00 | 96 | 1011.3 |
| 20260906072518 | 22 | 303 | 0.0 | 3.2 | 0.00 | 0.66 | 0.00 | 96 | 1011.2 |
| 20260906072024 | 22 | 305 | 0.0 | 1.6 | 0.00 | 0.66 | 0.00 | 96 | 1011.2 |
| 20260906071608 | 22 | 305 | 0.0 | 0.0 | 0.00 | 0.66 | 0.00 | 96 | 1011.3 |
| 20260906071025 | 22 | 305 | 0.0 | 0.0 | 0.00 | 0.66 | 0.00 | 96 | 1011.2 |
| 20260906070519 | 22 | 305 | 0.0 | 0.0 | 0.00 | 0.66 | 0.00 | 96 | 1011.3 |
| 20260906070104 | 22 | 305 | 0.0 | 4.8 | 0.00 | 0.66 | 0.00 | 96 | 1011.4 |
| 20260906065524 | 22 | 305 | 1.6 | 4.8 | 0.00 | 0.66 | 0.00 | 96 | 1011.4 |
| 20260906065021 | 22 | 304 | 0.0 | 3.2 | 0.00 | 0.66 | 0.00 | 96 | 1011.4 |
| 20260906064606 | 22 | 303 | 0.0 | 3.2 | 0.00 | 0.66 | 0.00 | 96 | 1011.4 |
| 20260906064017 | 22 | 303 | 0.0 | 0.0 | 0.00 | 0.66 | 0.00 | 96 | 1011.4 |
| 20260906063522 | 22 | 302 | 0.0 | 0.0 | 0.00 | 0.66 | 0.00 | 96 | 1011.4 |
| 20260906063057 | 22 | 302 | 0.0 | 0.0 | 0.00 | 0.66 | 0.00 | 96 | 1011.5 |
| 20260906062524 | 22 | 302 | 0.0 | 0.0 | 0.00 | 0.66 | 0.00 | 96 | 1011.6 |
| 20260906062021 | 22 | 301 | 0.0 | 0.0 | 0.00 | 0.66 | 0.00 | 96 | 1011.6 |
| 20260906061558 | 22 | 301 | 0.0 | 3.2 | 0.00 | 0.66 | 0.00 | 96 | 1011.7 |
| 20260906061023 | 22 | 301 | 1.6 | 4.8 | 0.00 | 0.66 | 0.00 | 96 | 1011.7 |
| 20260906060520 | 22 | 301 | 0.0 | 4.8 | 0.00 | 0.66 | 0.00 | 96 | 1011.6 |
| 20260906060104 | 22 | 298 | 0.0 | 3.2 | 0.00 | 0.66 | 0.00 | 96 | 1011.6 |
| 20260906055525 | 22 | 298 | 0.0 | 4.8 | 0.00 | 0.66 | 0.00 | 96 | 1011.8 |
| 20260906055023 | 22 | 290 | 1.6 | 4.8 | 0.00 | 0.66 | 0.00 | 96 | 1011.7 |
| 20260906054556 | 22 | 272 | 0.0 | 0.0 | 0.00 | 0.66 | 0.00 | 96 | 1011.7 |
| 20260906054024 | 22 | 272 | 0.0 | 0.0 | 0.00 | 0.66 | 0.00 | 96 | 1011.7 |
| 20260906053520 | 22 | 272 | 0.0 | 4.8 | 0.00 | 0.66 | 0.00 | 95 | 1011.7 |
| 20260906053105 | 22 | 272 | 0.0 | 4.8 | 0.00 | 0.66 | 0.00 | 95 | 1011.6 |
| 20260906052526 | 22 | 271 | 0.0 | 3.2 | 0.00 | 0.66 | 0.00 | 95 | 1011.5 |
| 20260906052023 | 22 | 271 | 0.0 | 3.2 | 0.00 | 0.66 | 0.00 | 95 | 1011.7 |
| 20260906051609 | 22 | 271 | 0.0 | 3.2 | 0.00 | 0.66 | 0.00 | 96 | 1011.7 |
| 20260906051023 | 22 | 271 | 0.0 | 1.6 | 0.00 | 0.66 | 0.00 | 95 | 1011.6 |
| 20260906050526 | 22 | 271 | 0.0 | 3.2 | 0.00 | 0.66 | 0.00 | 95 | 1011.8 |
| 20260906045525 | 22 | 271 | 0.0 | 4.8 | 0.00 | 0.66 | 0.00 | 95 | 1011.8 |
| 20260906045022 | 23 | 270 | 0.0 | 0.0 | 0.00 | 0.66 | 0.00 | 95 | 1011.8 |
| 20260906044555 | 23 | 270 | 0.0 | 3.2 | 0.00 | 0.66 | 0.00 | 95 | 1011.8 |
| 20260906044026 | 23 | 269 | 0.0 | 8.0 | 0.00 | 0.66 | 0.00 | 95 | 1011.8 |
| 20260906043519 | 23 | 266 | 1.6 | 8.0 | 0.00 | 0.66 | 0.00 | 95 | 1011.9 |
| 20260906043103 | 23 | 301 | 0.0 | 4.8 | 0.00 | 0.66 | 0.00 | 95 | 1011.8 |
| 20260906042524 | 23 | 300 | 0.0 | 4.8 | 0.00 | 0.66 | 0.00 | 95 | 1011.9 |
| 20260906042024 | 23 | 297 | 0.0 | 6.4 | 0.00 | 0.66 | 0.00 | 95 | 1011.9 |
| 20260906041614 | 23 | 294 | 1.6 | 6.4 | 0.00 | 0.66 | 0.00 | 95 | 1012.0 |
| 20260906041027 | 23 | 308 | 0.0 | 6.4 | 0.00 | 0.66 | 0.00 | 95 | 1011.9 |
| 20260906040523 | 23 | 305 | 1.6 | 6.4 | 0.00 | 0.66 | 0.00 | 95 | 1011.9 |
| 20260906040110 | 23 | 271 | 0.0 | 6.4 | 0.00 | 0.66 | 0.00 | 95 | 1011.8 |
| 20260906035524 | 23 | 215 | 0.0 | 3.2 | 0.00 | 0.66 | 0.66 | 95 | 1011.7 |
| 20260906035019 | 23 | 215 | 0.0 | 3.2 | 0.00 | 0.66 | 0.66 | 95 | 1011.8 |
| 20260906034606 | 23 | 189 | 0.0 | 3.2 | 0.00 | 0.66 | 0.66 | 95 | 1011.9 |
| 20260906034021 | 23 | 189 | 0.0 | 1.6 | 0.00 | 0.66 | 0.66 | 95 | 1011.9 |
| 20260906033523 | 23 | 189 | 0.0 | 4.8 | 0.00 | 0.66 | 0.66 | 95 | 1012.0 |
| 20260906033107 | 23 | 189 | 0.0 | 4.8 | 0.00 | 0.66 | 0.66 | 95 | 1012.0 |
| 20260906032521 | 23 | 189 | 0.0 | 4.8 | 0.00 | 0.66 | 0.66 | 95 | 1012.0 |
| 20260906032023 | 23 | 185 | 0.0 | 3.2 | 0.00 | 0.66 | 0.66 | 95 | 1012.2 |
| 20260906031600 | 23 | 185 | 0.0 | 1.6 | 0.00 | 0.66 | 0.66 | 94 | 1012.2 |
| 20260906031021 | 23 | 184 | 0.0 | 0.0 | 0.00 | 0.66 | 0.66 | 94 | 1012.3 |
| 20260906030524 | 23 | 184 | 0.0 | 0.0 | 0.00 | 0.66 | 0.66 | 94 | 1012.1 |
| 20260906025524 | 23 | 185 | 0.0 | 4.8 | 0.00 | 0.66 | 0.66 | 94 | 1012.4 |
| 20260906025025 | 23 | 183 | 1.6 | 8.0 | 0.00 | 0.66 | 0.66 | 94 | 1012.6 |
| 20260906024630 | 23 | 174 | 1.6 | 8.0 | 0.00 | 0.66 | 0.66 | 94 | 1012.6 |
| 20260906024032 | 23 | 174 | 0.0 | 0.0 | 0.00 | 0.66 | 0.66 | 94 | 1012.5 |
| 20260906023518 | 23 | 174 | 0.0 | 4.8 | 0.00 | 0.66 | 0.66 | 94 | 1012.7 |
| 20260906023051 | 23 | 174 | 0.0 | 4.8 | 0.00 | 0.66 | 0.66 | 94 | 1012.7 |
| 20260906022519 | 23 | 174 | 0.0 | 4.8 | 0.00 | 0.66 | 0.66 | 94 | 1012.8 |
| 20260906022021 | 23 | 174 | 0.0 | 8.0 | 0.00 | 0.66 | 0.66 | 94 | 1012.7 |
| 20260906021609 | 23 | 175 | 0.0 | 9.7 | 0.00 | 0.66 | 0.66 | 94 | 1012.7 |
| 20260906021018 | 23 | 174 | 3.2 | 9.7 | 0.00 | 0.66 | 0.66 | 94 | 1012.7 |
| 20260906020524 | 23 | 181 | 1.6 | 8.0 | 0.00 | 0.66 | 0.66 | 94 | 1012.9 |
| 20260906015519 | 23 | 220 | 3.2 | 8.0 | 0.00 | 0.66 | 0.66 | 94 | 1013.1 |
| 20260906015018 | 23 | 204 | 3.2 | 8.0 | 0.00 | 0.66 | 0.66 | 94 | 1012.9 |
| 20260906014602 | 23 | 164 | 1.6 | 11.3 | 0.00 | 0.66 | 0.66 | 94 | 1013.1 |
| 20260906014023 | 23 | 191 | 3.2 | 9.7 | 0.00 | 0.66 | 0.66 | 94 | 1013.1 |
| 20260906013519 | 23 | 168 | 1.6 | 8.0 | 0.00 | 0.66 | 0.66 | 95 | 1013.0 |
| 20260906013104 | 23 | 185 | 1.6 | 8.0 | 0.00 | 0.66 | 0.66 | 95 | 1013.0 |
| 20260906012520 | 23 | 187 | 1.6 | 8.0 | 0.00 | 0.66 | 0.66 | 95 | 1012.9 |
| 20260906012020 | 23 | 170 | 1.6 | 9.7 | 0.03 | 0.66 | 0.66 | 95 | 1012.9 |
| 20260906011552 | 23 | 186 | 1.6 | 9.7 | 0.03 | 0.66 | 0.66 | 95 | 1013.0 |
| 20260906011018 | 23 | 170 | 3.2 | 9.7 | 0.03 | 0.66 | 0.66 | 95 | 1013.0 |
| 20260906010518 | 23 | 203 | 3.2 | 8.0 | 0.03 | 0.66 | 0.66 | 95 | 1013.2 |
| 20260906010119 | 23 | 170 | 3.2 | 6.4 | 0.05 | 0.66 | 0.66 | 94 | 1013.1 |
| 20260906005519 | 23 | 166 | 1.6 | 6.4 | 0.05 | 0.66 | 0.66 | 94 | 1013.0 |
| 20260906005021 | 23 | 160 | 3.2 | 6.4 | 0.05 | 0.66 | 0.66 | 94 | 1013.2 |
| 20260906004605 | 23 | 127 | 0.0 | 3.2 | 0.05 | 0.66 | 0.66 | 95 | 1013.2 |
| 20260906004027 | 23 | 126 | 0.0 | 1.6 | 0.05 | 0.66 | 0.66 | 95 | 1013.3 |
| 20260906003519 | 23 | 126 | 0.0 | 1.6 | 0.05 | 0.66 | 0.66 | 94 | 1013.3 |
| 20260906003110 | 23 | 126 | 0.0 | 3.2 | 0.05 | 0.66 | 0.66 | 94 | 1013.3 |
| 20260906002520 | 23 | 126 | 0.0 | 4.8 | 0.03 | 0.66 | 0.66 | 94 | 1013.3 |
| 20260906002018 | 23 | 126 | 1.6 | 9.7 | 0.03 | 0.66 | 0.66 | 94 | 1013.2 |
| 20260906001553 | 23 | 122 | 1.6 | 9.7 | 0.03 | 0.66 | 0.66 | 94 | 1013.1 |
| 20260906001019 | 23 | 123 | 3.2 | 9.7 | 0.05 | 0.66 | 0.66 | 94 | 1012.9 |
| 20260906000523 | 23 | 120 | 1.6 | 11.3 | 0.08 | 0.64 | 0.64 | 94 | 1013.1 |
| 20260905235519 | 23 | 170 | 4.8 | 6.4 | 0.28 | 0.64 | 0.64 | 93 | 1012.8 |
| 20260905235017 | 23 | 99 | 0.0 | 4.8 | 0.33 | 0.64 | 0.64 | 93 | 1013.0 |
| 20260905234606 | 23 | 99 | 0.0 | 4.8 | 0.41 | 0.64 | 0.64 | 93 | 1012.5 |
| 20260905234023 | 23 | 316 | 0.0 | 4.8 | 0.64 | 0.64 | 0.64 | 93 | 1012.2 |
| 20260905233518 | 23 | 313 | 1.6 | 9.7 | 0.64 | 0.64 | 0.64 | 93 | 1012.1 |
| 20260905233053 | 23 | 308 | 1.6 | 17.7 | 0.64 | 0.64 | 0.64 | 92 | 1011.6 |
| 20260905232521 | 23 | 302 | 4.8 | 17.7 | 0.64 | 0.64 | 0.64 | 92 | 1012.1 |
| 20260905232022 | 23 | 254 | 4.8 | 16.1 | 0.64 | 0.64 | 0.64 | 92 | 1012.3 |
| 20260905231552 | 23 | 278 | 3.2 | 17.7 | 0.64 | 0.64 | 0.64 | 91 | 1012.3 |
| 20260905231020 | 23 | 272 | 4.8 | 17.7 | 0.61 | 0.61 | 0.61 | 90 | 1012.5 |
| 20260905230519 | 23 | 319 | 1.6 | 8.0 | 0.56 | 0.56 | 0.56 | 89 | 1012.6 |
| 20260905230053 | 23 | 289 | 1.6 | 16.1 | 0.46 | 0.46 | 0.46 | 88 | 1012.9 |
| 20260905225517 | 24 | 321 | 4.8 | 24.1 | 0.36 | 0.36 | 0.36 | 85 | 1012.9 |
| 20260905225017 | 25 | 322 | 9.7 | 40.2 | 0.30 | 0.30 | 0.30 | 81 | 1012.6 |
| 20260905224556 | 26 | 307 | 12.9 | 40.2 | 0.15 | 0.15 | 0.15 | 76 | 1012.4 |
| 20260905224018 | 28 | 36 | 6.4 | 32.2 | 0.00 | 0.00 | 0.00 | 71 | 1012.0 |
| 20260905223518 | 29 | 324 | 9.7 | 51.5 | 0.00 | 0.00 | 0.00 | 70 | 1012.4 |
| 20260905223055 | 31 | 259 | 6.4 | 40.2 | 0.00 | 0.00 | 0.00 | 78 | 1012.5 |
| 20260905222523 | 31 | 235 | 4.8 | 16.1 | 0.00 | 0.00 | 0.00 | 78 | 1011.0 |
| 20260905222018 | 31 | 193 | 8.0 | 16.1 | 0.00 | 0.00 | 0.00 | 77 | 1010.3 |
| 20260905221552 | 32 | 283 | 3.2 | 14.5 | 0.00 | 0.00 | 0.00 | 76 | 1010.7 |
| 20260905221018 | 32 | 226 | 6.4 | 11.3 | 0.00 | 0.00 | 0.00 | 76 | 1010.5 |
| 20260905220518 | 32 | 196 | 4.8 | 11.3 | 0.00 | 0.00 | 0.00 | 76 | 1010.8 |
| 20260905220051 | 32 | 210 | 6.4 | 11.3 | 0.00 | 0.00 | 0.00 | 75 | 1010.8 |
| 20260905215518 | 32 | 269 | 3.2 | 14.5 | 0.00 | 0.00 | 0.00 | 75 | 1011.4 |
| 20260905215023 | 32 | 264 | 1.6 | 14.5 | 0.00 | 0.00 | 0.00 | 75 | 1011.4 |
| 20260905214558 | 32 | 221 | 4.8 | 12.9 | 0.00 | 0.00 | 0.00 | 74 | 1010.9 |
| 20260905214018 | 32 | 253 | 4.8 | 14.5 | 0.00 | 0.00 | 0.00 | 74 | 1011.1 |
| 20260905213520 | 32 | 237 | 3.2 | 14.5 | 0.00 | 0.00 | 0.00 | 73 | 1011.1 |
| 20260905213054 | 33 | 220 | 8.0 | 16.1 | 0.00 | 0.00 | 0.00 | 73 | 1010.9 |
| 20260905212523 | 33 | 197 | 4.8 | 16.1 | 0.00 | 0.00 | 0.00 | 73 | 1010.9 |
| 20260905212019 | 33 | 262 | 3.2 | 12.9 | 0.00 | 0.00 | 0.00 | 74 | 1010.9 |
| 20260905211606 | 33 | 258 | 6.4 | 16.1 | 0.00 | 0.00 | 0.00 | 72 | 1011.0 |
| 20260905211025 | 33 | 234 | 8.0 | 16.1 | 0.00 | 0.00 | 0.00 | 72 | 1011.0 |
| 20260905210516 | 33 | 302 | 3.2 | 24.1 | 0.00 | 0.00 | 0.00 | 72 | 1011.0 |
| 20260905210058 | 33 | 246 | 4.8 | 17.7 | 0.00 | 0.00 | 0.00 | 71 | 1011.0 |
| 20260905205522 | 34 | 211 | 4.8 | 14.5 | 0.00 | 0.00 | 0.00 | 70 | 1010.8 |
| 20260905205018 | 34 | 210 | 6.4 | 12.9 | 0.00 | 0.00 | 0.00 | 70 | 1010.8 |
| 20260905204600 | 34 | 274 | 4.8 | 14.5 | 0.00 | 0.00 | 0.00 | 70 | 1010.8 |
| 20260905204018 | 34 | 237 | 4.8 | 14.5 | 0.00 | 0.00 | 0.00 | 70 | 1010.8 |
| 20260905203518 | 34 | 276 | 3.2 | 11.3 | 0.00 | 0.00 | 0.00 | 70 | 1010.8 |
| 20260905203100 | 34 | 217 | 6.4 | 9.7 | 0.00 | 0.00 | 0.00 | 70 | 1010.6 |
| 20260905202519 | 34 | 205 | 3.2 | 14.5 | 0.00 | 0.00 | 0.00 | 70 | 1010.7 |
| 20260905202019 | 33 | 267 | 4.8 | 14.5 | 0.00 | 0.00 | 0.00 | 70 | 1010.8 |
| 20260905201554 | 34 | 267 | 1.6 | 6.4 | 0.00 | 0.00 | 0.00 | 68 | 1010.8 |
| 20260905201022 | 33 | 305 | 1.6 | 6.4 | 0.00 | 0.00 | 0.00 | 68 | 1010.9 |
| 20260905200519 | 33 | 301 | 0.0 | 8.0 | 0.00 | 0.00 | 0.00 | 69 | 1010.9 |
| 20260905200108 | 33 | 309 | 3.2 | 8.0 | 0.00 | 0.00 | 0.00 | 68 | 1010.8 |
| 20260905195521 | 33 | 333 | 1.6 | 6.4 | 0.00 | 0.00 | 0.00 | 68 | 1010.8 |
| 20260905195023 | 34 | 288 | 0.0 | 6.4 | 0.00 | 0.00 | 0.00 | 67 | 1010.8 |
| 20260905194601 | 35 | 289 | 1.6 | 11.3 | 0.00 | 0.00 | 0.00 | 63 | 1010.9 |
| 20260905194021 | 35 | 320 | 3.2 | 11.3 | 0.00 | 0.00 | 0.00 | 65 | 1011.1 |
| 20260905193519 | 35 | 323 | 3.2 | 16.1 | 0.00 | 0.00 | 0.00 | 63 | 1011.0 |
| 20260905193110 | 34 | 312 | 4.8 | 16.1 | 0.00 | 0.00 | 0.00 | 65 | 1011.2 |
| 20260905192520 | 35 | 266 | 0.0 | 12.9 | 0.00 | 0.00 | 0.00 | 65 | 1011.3 |
| 20260905192020 | 36 | 328 | 3.2 | 16.1 | 0.00 | 0.00 | 0.00 | 61 | 1011.4 |
| 20260905191611 | 36 | 277 | 3.2 | 17.7 | 0.00 | 0.00 | 0.00 | 62 | 1011.5 |
| 20260905191017 | 35 | 297 | 4.8 | 17.7 | 0.00 | 0.00 | 0.00 | 62 | 1011.8 |
| 20260905190517 | 35 | 307 | 3.2 | 9.7 | 0.00 | 0.00 | 0.00 | 63 | 1012.1 |
| 20260905185523 | 36 | 276 | 3.2 | 17.7 | 0.00 | 0.00 | 0.00 | 60 | 1012.4 |
| 20260905185022 | 35 | 287 | 4.8 | 17.7 | 0.00 | 0.00 | 0.00 | 62 | 1012.4 |
| 20260905184609 | 36 | 252 | 4.8 | 16.1 | 0.00 | 0.00 | 0.00 | 62 | 1012.6 |
| 20260905184018 | 36 | 331 | 4.8 | 16.1 | 0.00 | 0.00 | 0.00 | 62 | 1012.9 |
| 20260905183520 | 36 | 333 | 3.2 | 16.1 | 0.00 | 0.00 | 0.00 | 63 | 1013.0 |
| 20260905183105 | 36 | 322 | 1.6 | 16.1 | 0.00 | 0.00 | 0.00 | 63 | 1013.0 |
| 20260905182518 | 35 | 293 | 3.2 | 16.1 | 0.00 | 0.00 | 0.00 | 61 | 1013.2 |
| 20260905182020 | 36 | 289 | 3.2 | 16.1 | 0.00 | 0.00 | 0.00 | 61 | 1013.3 |
| 20260905181605 | 37 | 253 | 3.2 | 12.9 | 0.00 | 0.00 | 0.00 | 60 | 1013.2 |
| 20260905181019 | 36 | 268 | 3.2 | 16.1 | 0.00 | 0.00 | 0.00 | 60 | 1013.2 |
| 20260905180519 | 37 | 268 | 1.6 | 16.1 | 0.00 | 0.00 | 0.00 | 59 | 1013.4 |
| 20260905175525 | 36 | 230 | 3.2 | 17.7 | 0.00 | 0.00 | 0.00 | 61 | 1013.7 |
| 20260905175020 | 36 | 237 | 1.6 | 14.5 | 0.00 | 0.00 | 0.00 | 62 | 1013.8 |
| 20260905174556 | 36 | 260 | 4.8 | 14.5 | 0.00 | 0.00 | 0.00 | 61 | 1013.8 |
| 20260905174020 | 36 | 318 | 3.2 | 16.1 | 0.00 | 0.00 | 0.00 | 62 | 1013.8 |
| 20260905173520 | 36 | 266 | 3.2 | 16.1 | 0.00 | 0.00 | 0.00 | 61 | 1013.9 |
| 20260905173106 | 36 | 56 | 3.2 | 12.9 | 0.00 | 0.00 | 0.00 | 61 | 1013.8 |
| 20260905172519 | 36 | 205 | 3.2 | 14.5 | 0.00 | 0.00 | 0.00 | 62 | 1013.9 |
| 20260905172018 | 35 | 238 | 3.2 | 16.1 | 0.00 | 0.00 | 0.00 | 66 | 1013.8 |
| 20260905171551 | 35 | 318 | 4.8 | 16.1 | 0.00 | 0.00 | 0.00 | 65 | 1013.8 |
| 20260905171017 | 35 | 302 | 3.2 | 16.1 | 0.00 | 0.00 | 0.00 | 65 | 1013.8 |
| 20260905170519 | 35 | 274 | 3.2 | 16.1 | 0.00 | 0.00 | 0.00 | 63 | 1014.1 |
| 20260905170105 | 35 | 258 | 1.6 | 16.1 | 0.00 | 0.00 | 0.00 | 66 | 1014.2 |
| 20260905165525 | 35 | 276 | 1.6 | 16.1 | 0.00 | 0.00 | 0.00 | 64 | 1014.2 |
| 20260905165019 | 35 | 324 | 3.2 | 11.3 | 0.00 | 0.00 | 0.00 | 67 | 1014.1 |
| 20260905164555 | 34 | 313 | 4.8 | 14.5 | 0.00 | 0.00 | 0.00 | 66 | 1014.3 |
| 20260905164018 | 35 | 238 | 3.2 | 14.5 | 0.00 | 0.00 | 0.00 | 67 | 1014.2 |
| 20260905163526 | 35 | 274 | 4.8 | 14.5 | 0.00 | 0.00 | 0.00 | 64 | 1014.3 |
| 20260905163111 | 35 | 238 | 3.2 | 17.7 | 0.00 | 0.00 | 0.00 | 67 | 1014.4 |
| 20260905162524 | 35 | 101 | 4.8 | 17.7 | 0.00 | 0.00 | 0.00 | 67 | 1014.5 |
| 20260905162018 | 34 | 234 | 6.4 | 17.7 | 0.00 | 0.00 | 0.00 | 67 | 1014.6 |
| 20260905161604 | 34 | 229 | 3.2 | 16.1 | 0.00 | 0.00 | 0.00 | 67 | 1014.5 |
| 20260905161020 | 34 | 320 | 6.4 | 16.1 | 0.00 | 0.00 | 0.00 | 67 | 1014.6 |
| 20260905160521 | 33 | 297 | 8.0 | 17.7 | 0.00 | 0.00 | 0.00 | 69 | 1014.6 |
| 20260905160104 | 34 | 326 | 3.2 | 19.3 | 0.00 | 0.00 | 0.00 | 69 | 1014.7 |
| 20260905155520 | 33 | 262 | 3.2 | 19.3 | 0.00 | 0.00 | 0.00 | 70 | 1014.6 |
| 20260905155020 | 34 | 286 | 4.8 | 14.5 | 0.00 | 0.00 | 0.00 | 68 | 1014.8 |
| 20260905154605 | 34 | 281 | 6.4 | 14.5 | 0.00 | 0.00 | 0.00 | 68 | 1014.7 |
| 20260905154018 | 33 | 291 | 6.4 | 16.1 | 0.00 | 0.00 | 0.00 | 70 | 1014.7 |
| 20260905153520 | 33 | 280 | 3.2 | 17.7 | 0.00 | 0.00 | 0.00 | 72 | 1014.5 |
| 20260905153052 | 33 | 201 | 8.0 | 16.1 | 0.00 | 0.00 | 0.00 | 70 | 1014.7 |
| 20260905152524 | 32 | 264 | 3.2 | 12.9 | 0.00 | 0.00 | 0.00 | 73 | 1014.8 |
| 20260905152019 | 33 | 316 | 4.8 | 14.5 | 0.00 | 0.00 | 0.00 | 73 | 1014.7 |
| 20260905151558 | 33 | 322 | 4.8 | 16.1 | 0.00 | 0.00 | 0.00 | 71 | 1014.9 |
| 20260905151020 | 33 | 268 | 3.2 | 16.1 | 0.00 | 0.00 | 0.00 | 72 | 1014.8 |
| 20260905150522 | 33 | 289 | 6.4 | 16.1 | 0.00 | 0.00 | 0.00 | 72 | 1014.9 |
| 20260905150104 | 32 | 244 | 4.8 | 17.7 | 0.00 | 0.00 | 0.00 | 74 | 1014.6 |
| 20260905145521 | 32 | 264 | 4.8 | 17.7 | 0.00 | 0.00 | 0.00 | 73 | 1014.5 |
| 20260905145019 | 32 | 237 | 8.0 | 16.1 | 0.00 | 0.00 | 0.00 | 74 | 1014.7 |
| 20260905144602 | 31 | 251 | 1.6 | 16.1 | 0.00 | 0.00 | 0.00 | 75 | 1014.5 |
| 20260905144019 | 32 | 303 | 6.4 | 16.1 | 0.00 | 0.00 | 0.00 | 75 | 1014.3 |
| 20260905143519 | 32 | 328 | 3.2 | 16.1 | 0.00 | 0.00 | 0.00 | 75 | 1014.3 |
| 20260905143110 | 32 | 252 | 6.4 | 16.1 | 0.00 | 0.00 | 0.00 | 75 | 1014.2 |
| 20260905142520 | 31 | 324 | 4.8 | 12.9 | 0.00 | 0.00 | 0.00 | 77 | 1014.3 |
| 20260905142018 | 31 | 253 | 4.8 | 12.9 | 0.00 | 0.00 | 0.00 | 79 | 1014.3 |
| 20260905141602 | 31 | 312 | 3.2 | 12.9 | 0.00 | 0.00 | 0.00 | 79 | 1014.2 |
| 20260905141017 | 30 | 29 | 1.6 | 14.5 | 0.00 | 0.00 | 0.00 | 79 | 1014.1 |
| 20260905140521 | 31 | 314 | 3.2 | 11.3 | 0.00 | 0.00 | 0.00 | 78 | 1014.2 |
| 20260905140104 | 31 | 278 | 3.2 | 9.7 | 0.00 | 0.00 | 0.00 | 78 | 1014.1 |
| 20260905135519 | 31 | 277 | 1.6 | 6.4 | 0.00 | 0.00 | 0.00 | 80 | 1014.0 |
| 20260905135019 | 30 | 304 | 1.6 | 14.5 | 0.00 | 0.00 | 0.00 | 81 | 1014.2 |
| 20260905134603 | 30 | 295 | 4.8 | 14.5 | 0.00 | 0.00 | 0.00 | 82 | 1014.3 |
| 20260905134023 | 29 | 293 | 3.2 | 14.5 | 0.00 | 0.00 | 0.00 | 82 | 1014.3 |
| 20260905133527 | 29 | 321 | 3.2 | 11.3 | 0.00 | 0.00 | 0.00 | 83 | 1014.2 |
| 20260905133055 | 29 | 248 | 1.6 | 8.0 | 0.00 | 0.00 | 0.00 | 84 | 1014.3 |
| 20260905132520 | 28 | 306 | 1.6 | 12.9 | 0.00 | 0.00 | 0.00 | 84 | 1014.4 |
| 20260905132022 | 28 | 310 | 3.2 | 12.9 | 0.00 | 0.00 | 0.00 | 84 | 1014.5 |
| 20260905131555 | 28 | 261 | 3.2 | 11.3 | 0.00 | 0.00 | 0.00 | 86 | 1014.4 |
| 20260905131018 | 28 | 267 | 1.6 | 14.5 | 0.00 | 0.00 | 0.00 | 86 | 1014.5 |
| 20260905130519 | 28 | 253 | 3.2 | 11.3 | 0.00 | 0.00 | 0.00 | 86 | 1014.5 |
| 20260905125522 | 27 | 256 | 3.2 | 14.5 | 0.00 | 0.00 | 0.00 | 88 | 1014.4 |
| 20260905125019 | 27 | 295 | 3.2 | 14.5 | 0.00 | 0.00 | 0.00 | 89 | 1014.4 |
| 20260905124601 | 27 | 267 | 4.8 | 14.5 | 0.00 | 0.00 | 0.00 | 90 | 1014.5 |
| 20260905124025 | 27 | 292 | 3.2 | 12.9 | 0.00 | 0.00 | 0.00 | 91 | 1014.3 |
| 20260905123523 | 27 | 224 | 4.8 | 14.5 | 0.00 | 0.00 | 0.00 | 91 | 1014.3 |
| 20260905123058 | 26 | 303 | 4.8 | 14.5 | 0.00 | 0.00 | 0.00 | 92 | 1014.4 |
| 20260905122519 | 26 | 330 | 3.2 | 14.5 | 0.00 | 0.00 | 0.00 | 93 | 1014.3 |
| 20260905122019 | 26 | 318 | 3.2 | 16.1 | 0.00 | 0.00 | 0.00 | 93 | 1014.3 |
| 20260905121553 | 26 | 256 | 4.8 | 16.1 | 0.00 | 0.00 | 0.00 | 94 | 1014.3 |